owner,sensor,date,latitude,longitude,vertical_datum,wind_speed,wind_to_direction,wind_speed_of_gust,qcFlag 
TCOON,ioos:station:TCOON:013:1,2015-04-01T00:12:00Z,27.4847,-97.3181,0.0,7.2,132.0,9.5,'1111122,1111122,1111122' 
TCOON,ioos:station:TCOON:013:1,2015-04-01T01:12:00Z,27.4847,-97.3181,0.0,6.0,132.0,8.0,'1111122,1111122,1111122' 
TCOON,ioos:station:TCOON:013:1,2015-04-01T02:12:00Z,27.4847,-97.3181,0.0,7.7,134.0,9.1,'1111122,1111122,1111122' 
TCOON,ioos:station:TCOON:013:1,2015-04-01T03:24:00Z,27.4847,-97.3181,0.0,10.3,148.0,13.0,'1111122,1111122,1111122' 
TCOON,ioos:station:TCOON:013:1,2015-04-01T04:18:00Z,27.4847,-97.3181,0.0,6.0,151.0,8.0,'1111122,1111122,1111122' 
TCOON,ioos:station:TCOON:013:1,2015-04-01T05:18:00Z,27.4847,-97.3181,0.0,7.7,154.0,9.3,'1111122,1111122,1111122' 
TCOON,ioos:station:TCOON:013:1,2015-04-01T07:06:00Z,27.4847,-97.3181,0.0,5.1,153.0,6.6,'1111122,1111122,1111122' 
TCOON,ioos:station:TCOON:013:1,2015-04-01T08:18:00Z,27.4847,-97.3181,0.0,4.8,164.0,5.6,'1111122,1111122,1111122' 
TCOON,ioos:station:TCOON:013:1,2015-04-01T09:24:00Z,27.4847,-97.3181,0.0,5.2,172.0,6.3,'1111122,1111122,1111122' 
TCOON,ioos:station:TCOON:013:1,2015-04-01T10:18:00Z,27.4847,-97.3181,0.0,5.9,154.0,7.8,'1111122,1111122,1111122' 
TCOON,ioos:station:TCOON:013:1,2015-04-01T11:12:00Z,27.4847,-97.3181,0.0,4.1,103.0,5.9,'1111122,1111122,1111122' 
TCOON,ioos:station:TCOON:013:1,2015-04-01T12:12:00Z,27.4847,-97.3181,0.0,5.2,152.0,6.4,'1111122,1111122,1111122' 
TCOON,ioos:station:TCOON:013:1,2015-04-01T13:18:00Z,27.4847,-97.3181,0.0,2.8,151.0,3.4,'1111122,1111122,1111122' 
TCOON,ioos:station:TCOON:013:1,2015-04-01T14:18:00Z,27.4847,-97.3181,0.0,2.3,154.0,3.1,'1111122,1111122,1111122' 
TCOON,ioos:station:TCOON:013:1,2015-04-01T15:18:00Z,27.4847,-97.3181,0.0,2.4,120.0,3.0,'1111122,1111122,1111122' 
TCOON,ioos:station:TCOON:013:1,2015-04-01T16:18:00Z,27.4847,-97.3181,0.0,4.0,127.0,5.3,'1111122,1111122,1111122' 
TCOON,ioos:station:TCOON:013:1,2015-04-01T17:18:00Z,27.4847,-97.3181,0.0,6.0,138.0,7.7,'1111122,1111122,1111122' 
TCOON,ioos:station:TCOON:013:1,2015-04-01T18:18:00Z,27.4847,-97.3181,0.0,5.1,132.0,7.3,'1111122,1111122,1111122' 
TCOON,ioos:station:TCOON:013:1,2015-04-01T19:18:00Z,27.4847,-97.3181,0.0,6.6,118.0,8.3,'1111122,1111122,1111122' 
TCOON,ioos:station:TCOON:013:1,2015-04-01T20:18:00Z,27.4847,-97.3181,0.0,7.6,112.0,9.7,'1111122,1111122,1111122' 
TCOON,ioos:station:TCOON:013:1,2015-04-01T21:12:00Z,27.4847,-97.3181,0.0,8.3,125.0,11.1,'1111122,1111122,1111122' 
TCOON,ioos:station:TCOON:013:1,2015-04-01T22:18:00Z,27.4847,-97.3181,0.0,7.7,122.0,10.2,'1111122,1111122,1111122' 
TCOON,ioos:station:TCOON:013:1,2015-04-01T23:12:00Z,27.4847,-97.3181,0.0,7.5,124.0,9.6,'1111122,1111122,1111122' 
TCOON,ioos:station:TCOON:013:1,2015-04-02T00:12:00Z,27.4847,-97.3181,0.0,7.3,127.0,9.3,'1111122,1111122,1111122' 
TCOON,ioos:station:TCOON:013:1,2015-04-02T01:12:00Z,27.4847,-97.3181,0.0,7.6,140.0,9.4,'1111122,1111122,1111122' 
TCOON,ioos:station:TCOON:013:1,2015-04-02T02:12:00Z,27.4847,-97.3181,0.0,5.9,133.0,6.7,'1111122,1111122,1111122' 
TCOON,ioos:station:TCOON:013:1,2015-04-02T03:12:00Z,27.4847,-97.3181,0.0,5.7,132.0,7.6,'1111122,1111122,1111122' 
TCOON,ioos:station:TCOON:013:1,2015-04-02T04:18:00Z,27.4847,-97.3181,0.0,5.6,133.0,7.2,'1111122,1111122,1111122' 
TCOON,ioos:station:TCOON:013:1,2015-04-02T05:24:00Z,27.4847,-97.3181,0.0,5.0,146.0,7.1,'1111122,1111122,1111122' 
TCOON,ioos:station:TCOON:013:1,2015-04-02T06:18:00Z,27.4847,-97.3181,0.0,5.7,151.0,7.4,'1111122,1111122,1111122' 
TCOON,ioos:station:TCOON:013:1,2015-04-02T07:12:00Z,27.4847,-97.3181,0.0,6.9,148.0,8.2,'1111122,1111122,1111122' 
TCOON,ioos:station:TCOON:013:1,2015-04-02T08:12:00Z,27.4847,-97.3181,0.0,7.9,161.0,9.5,'1111122,1111122,1111122' 
TCOON,ioos:station:TCOON:013:1,2015-04-02T09:30:00Z,27.4847,-97.3181,0.0,6.7,164.0,8.5,'1111122,1111122,1111122' 
TCOON,ioos:station:TCOON:013:1,2015-04-02T10:18:00Z,27.4847,-97.3181,0.0,6.1,157.0,7.8,'1111122,1111122,1111122' 
TCOON,ioos:station:TCOON:013:1,2015-04-02T11:18:00Z,27.4847,-97.3181,0.0,6.8,149.0,8.1,'1111122,1111122,1111122' 
TCOON,ioos:station:TCOON:013:1,2015-04-02T12:18:00Z,27.4847,-97.3181,0.0,4.1,149.0,4.8,'1111122,1111122,1111122' 
TCOON,ioos:station:TCOON:013:1,2015-04-02T13:18:00Z,27.4847,-97.3181,0.0,5.5,134.0,6.7,'1111122,1111122,1111122' 
TCOON,ioos:station:TCOON:013:1,2015-04-02T14:18:00Z,27.4847,-97.3181,0.0,6.5,134.0,7.4,'1111122,1111122,1111122' 
TCOON,ioos:station:TCOON:013:1,2015-04-02T15:18:00Z,27.4847,-97.3181,0.0,7.4,143.0,8.9,'1111122,1111122,1111122' 
TCOON,ioos:station:TCOON:013:1,2015-04-02T16:18:00Z,27.4847,-97.3181,0.0,7.6,146.0,10.4,'1111122,1111122,1111122' 
TCOON,ioos:station:TCOON:013:1,2015-04-02T17:18:00Z,27.4847,-97.3181,0.0,8.4,145.0,10.2,'1111122,1111122,1111122' 
TCOON,ioos:station:TCOON:013:1,2015-04-02T18:18:00Z,27.4847,-97.3181,0.0,9.0,141.0,11.1,'1111122,1111122,1111122' 
TCOON,ioos:station:TCOON:013:1,2015-04-02T19:18:00Z,27.4847,-97.3181,0.0,8.2,143.0,11.9,'1111122,1111122,1111122' 
TCOON,ioos:station:TCOON:013:1,2015-04-02T20:12:00Z,27.4847,-97.3181,0.0,8.5,135.0,11.6,'1111122,1111122,1111122' 
TCOON,ioos:station:TCOON:013:1,2015-04-02T21:18:00Z,27.4847,-97.3181,0.0,8.1,133.0,10.8,'1111122,1111122,1111122' 
TCOON,ioos:station:TCOON:013:1,2015-04-02T22:12:00Z,27.4847,-97.3181,0.0,7.3,127.0,9.2,'1111122,1111122,1111122' 
TCOON,ioos:station:TCOON:013:1,2015-04-02T23:12:00Z,27.4847,-97.3181,0.0,7.1,121.0,9.4,'1111122,1111122,1111122' 
TCOON,ioos:station:TCOON:013:1,2015-04-03T00:12:00Z,27.4847,-97.3181,0.0,6.3,122.0,8.3,'1111122,1111122,1111122' 
TCOON,ioos:station:TCOON:013:1,2015-04-03T01:12:00Z,27.4847,-97.3181,0.0,5.9,124.0,6.9,'1111122,1111122,1111122' 
TCOON,ioos:station:TCOON:013:1,2015-04-03T02:12:00Z,27.4847,-97.3181,0.0,4.5,120.0,5.9,'1111122,1111122,1111122' 
TCOON,ioos:station:TCOON:013:1,2015-04-03T03:18:00Z,27.4847,-97.3181,0.0,4.1,133.0,5.6,'1111122,1111122,1111122' 
TCOON,ioos:station:TCOON:013:1,2015-04-03T04:18:00Z,27.4847,-97.3181,0.0,4.8,137.0,5.4,'1111122,1111122,1111122' 
TCOON,ioos:station:TCOON:013:1,2015-04-03T05:18:00Z,27.4847,-97.3181,0.0,5.8,147.0,6.8,'1111122,1111122,1111122' 
TCOON,ioos:station:TCOON:013:1,2015-04-03T06:18:00Z,27.4847,-97.3181,0.0,7.1,151.0,8.4,'1111122,1111122,1111122' 
TCOON,ioos:station:TCOON:013:1,2015-04-03T07:12:00Z,27.4847,-97.3181,0.0,8.1,158.0,9.9,'1111122,1111122,1111122' 
TCOON,ioos:station:TCOON:013:1,2015-04-03T08:12:00Z,27.4847,-97.3181,0.0,7.6,160.0,9.5,'1111122,1111122,1111122' 
TCOON,ioos:station:TCOON:013:1,2015-04-03T09:30:00Z,27.4847,-97.3181,0.0,5.1,156.0,6.4,'1111122,1111122,1111122' 
TCOON,ioos:station:TCOON:013:1,2015-04-03T10:12:00Z,27.4847,-97.3181,0.0,4.8,147.0,5.9,'1111122,1111122,1111122' 
TCOON,ioos:station:TCOON:013:1,2015-04-03T11:18:00Z,27.4847,-97.3181,0.0,4.0,120.0,5.0,'1111122,1111122,1111122' 
TCOON,ioos:station:TCOON:013:1,2015-04-03T12:18:00Z,27.4847,-97.3181,0.0,5.5,135.0,6.9,'1111122,1111122,1111122' 
TCOON,ioos:station:TCOON:013:1,2015-04-03T13:12:00Z,27.4847,-97.3181,0.0,6.2,137.0,8.1,'1111122,1111122,1111122' 
TCOON,ioos:station:TCOON:013:1,2015-04-03T14:12:00Z,27.4847,-97.3181,0.0,6.1,144.0,7.1,'1111122,1111122,1111122' 
TCOON,ioos:station:TCOON:013:1,2015-04-03T15:18:00Z,27.4847,-97.3181,0.0,5.9,151.0,7.2,'1111122,1111122,1111122' 
TCOON,ioos:station:TCOON:013:1,2015-04-03T16:12:00Z,27.4847,-97.3181,0.0,7.1,150.0,8.6,'1111122,1111122,1111122' 
TCOON,ioos:station:TCOON:013:1,2015-04-03T17:12:00Z,27.4847,-97.3181,0.0,7.4,144.0,9.2,'1111122,1111122,1111122' 
TCOON,ioos:station:TCOON:013:1,2015-04-03T18:12:00Z,27.4847,-97.3181,0.0,7.1,136.0,9.1,'1111122,1111122,1111122' 
TCOON,ioos:station:TCOON:013:1,2015-04-03T19:18:00Z,27.4847,-97.3181,0.0,7.2,129.0,9.3,'1111122,1111122,1111122' 
TCOON,ioos:station:TCOON:013:1,2015-04-03T20:12:00Z,27.4847,-97.3181,0.0,6.1,113.0,8.0,'1111122,1111122,1111122' 
TCOON,ioos:station:TCOON:013:1,2015-04-03T21:12:00Z,27.4847,-97.3181,0.0,5.8,98.0,7.3,'1111122,1111122,1111122' 
TCOON,ioos:station:TCOON:013:1,2015-04-03T22:12:00Z,27.4847,-97.3181,0.0,5.9,96.0,7.9,'1111122,1111122,1111122' 
TCOON,ioos:station:TCOON:013:1,2015-04-03T23:12:00Z,27.4847,-97.3181,0.0,6.3,87.0,7.6,'1111122,1111122,1111122' 
TCOON,ioos:station:TCOON:013:1,2015-04-04T00:12:00Z,27.4847,-97.3181,0.0,6.8,80.0,7.8,'1111122,1111122,1111122' 
TCOON,ioos:station:TCOON:013:1,2015-04-04T01:30:00Z,27.4847,-97.3181,0.0,6.2,80.0,7.8,'1111122,1111122,1111122' 
TCOON,ioos:station:TCOON:013:1,2015-04-04T02:12:00Z,27.4847,-97.3181,0.0,5.1,88.0,6.2,'1111122,1111122,1111122' 
TCOON,ioos:station:TCOON:013:1,2015-04-04T03:12:00Z,27.4847,-97.3181,0.0,4.7,88.0,5.6,'1111122,1111122,1111122' 
TCOON,ioos:station:TCOON:013:1,2015-04-04T04:18:00Z,27.4847,-97.3181,0.0,4.3,66.0,5.1,'1111122,1111122,1111122' 
TCOON,ioos:station:TCOON:013:1,2015-04-04T05:18:00Z,27.4847,-97.3181,0.0,4.7,76.0,5.2,'1111122,1111122,1111122' 
TCOON,ioos:station:TCOON:013:1,2015-04-04T07:06:00Z,27.4847,-97.3181,0.0,3.8,55.0,4.3,'1111122,1111122,1111122' 
TCOON,ioos:station:TCOON:013:1,2015-04-04T08:12:00Z,27.4847,-97.3181,0.0,2.5,34.0,2.8,'1111122,1111122,1111122' 
TCOON,ioos:station:TCOON:013:1,2015-04-04T09:12:00Z,27.4847,-97.3181,0.0,4.7,20.0,5.1,'1111122,1111122,1111122' 
TCOON,ioos:station:TCOON:013:1,2015-04-04T10:12:00Z,27.4847,-97.3181,0.0,10.6,21.0,13.4,'1111122,1111122,1111122' 
TCOON,ioos:station:TCOON:013:1,2015-04-04T11:12:00Z,27.4847,-97.3181,0.0,12.4,18.0,14.2,'1111122,1111122,1111122' 
TCOON,ioos:station:TCOON:013:1,2015-04-04T12:12:00Z,27.4847,-97.3181,0.0,13.9,23.0,15.7,'1111122,1111122,1111122' 
TCOON,ioos:station:TCOON:013:1,2015-04-04T13:12:00Z,27.4847,-97.3181,0.0,11.0,29.0,14.1,'1111122,1111122,1111122' 
TCOON,ioos:station:TCOON:013:1,2015-04-04T14:12:00Z,27.4847,-97.3181,0.0,10.9,21.0,14.6,'1111122,1111122,1111122' 
TCOON,ioos:station:TCOON:013:1,2015-04-04T15:18:00Z,27.4847,-97.3181,0.0,10.9,30.0,12.8,'1111122,1111122,1111122' 
TCOON,ioos:station:TCOON:013:1,2015-04-04T16:12:00Z,27.4847,-97.3181,0.0,8.7,43.0,12.0,'1111122,1111122,1111122' 
TCOON,ioos:station:TCOON:013:1,2015-04-04T17:12:00Z,27.4847,-97.3181,0.0,9.9,44.0,12.2,'1111122,1111122,1111122' 
TCOON,ioos:station:TCOON:013:1,2015-04-04T18:12:00Z,27.4847,-97.3181,0.0,9.4,49.0,11.8,'1111122,1111122,1111122' 
TCOON,ioos:station:TCOON:013:1,2015-04-04T19:18:00Z,27.4847,-97.3181,0.0,9.8,40.0,13.2,'1111122,1111122,1111122' 
TCOON,ioos:station:TCOON:013:1,2015-04-04T20:18:00Z,27.4847,-97.3181,0.0,10.1,38.0,12.2,'1111122,1111122,1111122' 
TCOON,ioos:station:TCOON:013:1,2015-04-04T21:18:00Z,27.4847,-97.3181,0.0,10.8,48.0,12.3,'1111122,1111122,1111122' 
TCOON,ioos:station:TCOON:013:1,2015-04-04T22:12:00Z,27.4847,-97.3181,0.0,9.6,46.0,11.8,'1111122,1111122,1111122' 
TCOON,ioos:station:TCOON:013:1,2015-04-04T23:12:00Z,27.4847,-97.3181,0.0,10.0,53.0,12.7,'1111122,1111122,1111122' 
TCOON,ioos:station:TCOON:013:1,2015-04-05T00:12:00Z,27.4847,-97.3181,0.0,7.8,55.0,10.6,'1111122,1111122,1111122' 
TCOON,ioos:station:TCOON:013:1,2015-04-05T01:12:00Z,27.4847,-97.3181,0.0,9.1,59.0,11.2,'1111122,1111122,1111122' 
TCOON,ioos:station:TCOON:013:1,2015-04-05T02:12:00Z,27.4847,-97.3181,0.0,7.8,59.0,10.2,'1111122,1111122,1111122' 
TCOON,ioos:station:TCOON:013:1,2015-04-05T03:12:00Z,27.4847,-97.3181,0.0,7.0,52.0,8.3,'1111122,1111122,1111122' 
TCOON,ioos:station:TCOON:013:1,2015-04-05T04:18:00Z,27.4847,-97.3181,0.0,6.5,68.0,7.6,'1111122,1111122,1111122' 
TCOON,ioos:station:TCOON:013:1,2015-04-05T05:18:00Z,27.4847,-97.3181,0.0,4.1,63.0,5.4,'1111122,1111122,1111122' 
TCOON,ioos:station:TCOON:013:1,2015-04-05T07:06:00Z,27.4847,-97.3181,0.0,4.5,64.0,5.6,'1111122,1111122,1111122' 
TCOON,ioos:station:TCOON:013:1,2015-04-05T08:12:00Z,27.4847,-97.3181,0.0,4.4,90.0,5.0,'1111122,1111122,1111122' 
TCOON,ioos:station:TCOON:013:1,2015-04-05T09:12:00Z,27.4847,-97.3181,0.0,4.3,101.0,5.4,'1111122,1111122,1111122' 
TCOON,ioos:station:TCOON:013:1,2015-04-05T10:12:00Z,27.4847,-97.3181,0.0,3.3,113.0,4.5,'1111122,1111122,1111122' 
TCOON,ioos:station:TCOON:013:1,2015-04-05T11:12:00Z,27.4847,-97.3181,0.0,4.4,136.0,5.2,'1111122,1111122,1111122' 
TCOON,ioos:station:TCOON:013:1,2015-04-05T12:12:00Z,27.4847,-97.3181,0.0,4.0,161.0,6.2,'1111122,1111122,1111122' 
TCOON,ioos:station:TCOON:013:1,2015-04-05T13:12:00Z,27.4847,-97.3181,0.0,3.7,180.0,4.5,'1111122,1111122,1111122' 
TCOON,ioos:station:TCOON:013:1,2015-04-05T14:12:00Z,27.4847,-97.3181,0.0,3.5,189.0,3.9,'1111122,1111122,1111122' 
TCOON,ioos:station:TCOON:013:1,2015-04-05T15:18:00Z,27.4847,-97.3181,0.0,5.1,223.0,5.5,'1111122,1111122,1111122' 
TCOON,ioos:station:TCOON:013:1,2015-04-05T16:12:00Z,27.4847,-97.3181,0.0,5.3,173.0,6.0,'1111122,1111122,1111122' 
TCOON,ioos:station:TCOON:013:1,2015-04-05T17:12:00Z,27.4847,-97.3181,0.0,7.2,163.0,8.9,'1111122,1111122,1111122' 
TCOON,ioos:station:TCOON:013:1,2015-04-05T18:12:00Z,27.4847,-97.3181,0.0,10.3,163.0,12.3,'1111122,1111122,1111122' 
TCOON,ioos:station:TCOON:013:1,2015-04-05T19:18:00Z,27.4847,-97.3181,0.0,11.3,158.0,13.5,'1111122,1111122,1111122' 
TCOON,ioos:station:TCOON:013:1,2015-04-05T20:12:00Z,27.4847,-97.3181,0.0,6.4,170.0,8.6,'1111122,1111122,1111122' 
TCOON,ioos:station:TCOON:013:1,2015-04-05T21:18:00Z,27.4847,-97.3181,0.0,7.1,145.0,9.3,'1111122,1111122,1111122' 
TCOON,ioos:station:TCOON:013:1,2015-04-05T22:12:00Z,27.4847,-97.3181,0.0,5.7,132.0,8.1,'1111122,1111122,1111122' 
TCOON,ioos:station:TCOON:013:1,2015-04-05T23:18:00Z,27.4847,-97.3181,0.0,5.9,118.0,7.9,'1111122,1111122,1111122' 
TCOON,ioos:station:TCOON:013:1,2015-04-06T00:12:00Z,27.4847,-97.3181,0.0,5.9,114.0,7.3,'1111122,1111122,1111122' 
TCOON,ioos:station:TCOON:013:1,2015-04-06T01:12:00Z,27.4847,-97.3181,0.0,5.3,109.0,6.7,'1111122,1111122,1111122' 
TCOON,ioos:station:TCOON:013:1,2015-04-06T02:12:00Z,27.4847,-97.3181,0.0,5.7,107.0,7.1,'1111122,1111122,1111122' 
TCOON,ioos:station:TCOON:013:1,2015-04-06T03:12:00Z,27.4847,-97.3181,0.0,4.7,102.0,5.5,'1111122,1111122,1111122' 
TCOON,ioos:station:TCOON:013:1,2015-04-06T04:18:00Z,27.4847,-97.3181,0.0,4.9,96.0,6.5,'1111122,1111122,1111122' 
TCOON,ioos:station:TCOON:013:1,2015-04-06T05:18:00Z,27.4847,-97.3181,0.0,3.2,101.0,4.2,'1111122,1111122,1111122' 
TCOON,ioos:station:TCOON:013:1,2015-04-06T06:18:00Z,27.4847,-97.3181,0.0,4.6,129.0,5.8,'1111122,1111122,1111122' 
TCOON,ioos:station:TCOON:013:1,2015-04-06T07:12:00Z,27.4847,-97.3181,0.0,4.5,124.0,5.5,'1111122,1111122,1111122' 
TCOON,ioos:station:TCOON:013:1,2015-04-06T08:12:00Z,27.4847,-97.3181,0.0,5.9,129.0,8.1,'1111122,1111122,1111122' 
TCOON,ioos:station:TCOON:013:1,2015-04-06T09:18:00Z,27.4847,-97.3181,0.0,5.5,138.0,6.9,'1111122,1111122,1111122' 
TCOON,ioos:station:TCOON:013:1,2015-04-06T10:12:00Z,27.4847,-97.3181,0.0,3.7,139.0,5.0,'1111122,1111122,1111122' 
TCOON,ioos:station:TCOON:013:1,2015-04-06T11:12:00Z,27.4847,-97.3181,0.0,2.7,148.0,3.9,'1111122,1111122,1111122' 
TCOON,ioos:station:TCOON:013:1,2015-04-06T12:18:00Z,27.4847,-97.3181,0.0,2.5,109.0,2.9,'1111122,1111122,1111122' 
TCOON,ioos:station:TCOON:013:1,2015-04-06T13:18:00Z,27.4847,-97.3181,0.0,1.8,103.0,2.1,'1111122,1111122,1111122' 
TCOON,ioos:station:TCOON:013:1,2015-04-06T14:18:00Z,27.4847,-97.3181,0.0,3.6,99.0,4.1,'1111122,1111122,1111122' 
TCOON,ioos:station:TCOON:013:1,2015-04-06T15:18:00Z,27.4847,-97.3181,0.0,5.0,112.0,6.3,'1111122,1111122,1111122' 
TCOON,ioos:station:TCOON:013:1,2015-04-06T16:18:00Z,27.4847,-97.3181,0.0,7.0,123.0,9.8,'1111122,1111122,1111122' 
TCOON,ioos:station:TCOON:013:1,2015-04-06T17:18:00Z,27.4847,-97.3181,0.0,7.6,122.0,9.3,'1111122,1111122,1111122' 
TCOON,ioos:station:TCOON:013:1,2015-04-06T18:18:00Z,27.4847,-97.3181,0.0,7.9,128.0,11.0,'1111122,1111122,1111122' 
TCOON,ioos:station:TCOON:013:1,2015-04-06T19:18:00Z,27.4847,-97.3181,0.0,7.9,127.0,10.4,'1111122,1111122,1111122' 
TCOON,ioos:station:TCOON:013:1,2015-04-06T20:18:00Z,27.4847,-97.3181,0.0,8.0,125.0,9.8,'1111122,1111122,1111122' 
TCOON,ioos:station:TCOON:013:1,2015-04-06T21:18:00Z,27.4847,-97.3181,0.0,8.3,127.0,10.1,'1111122,1111122,1111122' 
TCOON,ioos:station:TCOON:013:1,2015-04-06T22:18:00Z,27.4847,-97.3181,0.0,8.5,130.0,10.4,'1111122,1111122,1111122' 
TCOON,ioos:station:TCOON:013:1,2015-04-06T23:12:00Z,27.4847,-97.3181,0.0,8.5,128.0,9.8,'1111122,1111122,1111122' 
TCOON,ioos:station:TCOON:013:1,2015-04-07T00:12:00Z,27.4847,-97.3181,0.0,6.8,128.0,9.0,'1111122,1111122,1111122' 
TCOON,ioos:station:TCOON:013:1,2015-04-07T01:12:00Z,27.4847,-97.3181,0.0,6.8,124.0,8.4,'1111122,1111122,1111122' 
TCOON,ioos:station:TCOON:013:1,2015-04-07T02:12:00Z,27.4847,-97.3181,0.0,4.9,118.0,6.2,'1111122,1111122,1111122' 
TCOON,ioos:station:TCOON:013:1,2015-04-07T03:18:00Z,27.4847,-97.3181,0.0,4.8,122.0,6.0,'1111122,1111122,1111122' 
TCOON,ioos:station:TCOON:013:1,2015-04-07T04:18:00Z,27.4847,-97.3181,0.0,5.2,119.0,6.2,'1111122,1111122,1111122' 
TCOON,ioos:station:TCOON:013:1,2015-04-07T05:12:00Z,27.4847,-97.3181,0.0,5.7,127.0,7.1,'1111122,1111122,1111122' 
TCOON,ioos:station:TCOON:013:1,2015-04-07T07:06:00Z,27.4847,-97.3181,0.0,5.7,135.0,7.5,'1111122,1111122,1111122' 
TCOON,ioos:station:TCOON:013:1,2015-04-07T08:18:00Z,27.4847,-97.3181,0.0,6.1,146.0,7.7,'1111122,1111122,1111122' 
TCOON,ioos:station:TCOON:013:1,2015-04-07T09:18:00Z,27.4847,-97.3181,0.0,8.1,149.0,9.8,'1111122,1111122,1111122' 
TCOON,ioos:station:TCOON:013:1,2015-04-07T10:12:00Z,27.4847,-97.3181,0.0,6.1,154.0,7.8,'1111122,1111122,1111122' 
TCOON,ioos:station:TCOON:013:1,2015-04-07T11:18:00Z,27.4847,-97.3181,0.0,6.6,153.0,8.0,'1111122,1111122,1111122' 
TCOON,ioos:station:TCOON:013:1,2015-04-07T12:18:00Z,27.4847,-97.3181,0.0,5.6,154.0,6.8,'1111122,1111122,1111122' 
TCOON,ioos:station:TCOON:013:1,2015-04-07T13:12:00Z,27.4847,-97.3181,0.0,6.2,156.0,8.3,'1111122,1111122,1111122' 
TCOON,ioos:station:TCOON:013:1,2015-04-07T14:12:00Z,27.4847,-97.3181,0.0,6.6,157.0,8.0,'1111122,1111122,1111122' 
TCOON,ioos:station:TCOON:013:1,2015-04-07T15:18:00Z,27.4847,-97.3181,0.0,7.1,162.0,8.8,'1111122,1111122,1111122' 
TCOON,ioos:station:TCOON:013:1,2015-04-07T16:18:00Z,27.4847,-97.3181,0.0,8.7,152.0,10.2,'1111122,1111122,1111122' 
TCOON,ioos:station:TCOON:013:1,2015-04-07T17:24:00Z,27.4847,-97.3181,0.0,8.9,150.0,11.0,'1111122,1111122,1111122' 
TCOON,ioos:station:TCOON:013:1,2015-04-07T18:24:00Z,27.4847,-97.3181,0.0,8.2,147.0,10.2,'1111122,1111122,1111122' 
TCOON,ioos:station:TCOON:013:1,2015-04-07T19:18:00Z,27.4847,-97.3181,0.0,7.6,143.0,10.5,'1111122,1111122,1111122' 
TCOON,ioos:station:TCOON:013:1,2015-04-07T20:12:00Z,27.4847,-97.3181,0.0,6.6,132.0,9.2,'1111122,1111122,1111122' 
TCOON,ioos:station:TCOON:013:1,2015-04-07T21:18:00Z,27.4847,-97.3181,0.0,7.7,131.0,9.1,'1111122,1111122,1111122' 
TCOON,ioos:station:TCOON:013:1,2015-04-07T22:24:00Z,27.4847,-97.3181,0.0,7.2,127.0,8.7,'1111122,1111122,1111122' 
TCOON,ioos:station:TCOON:013:1,2015-04-07T23:18:00Z,27.4847,-97.3181,0.0,5.7,119.0,7.9,'1111122,1111122,1111122' 
TCOON,ioos:station:TCOON:013:1,2015-04-08T00:12:00Z,27.4847,-97.3181,0.0,5.6,115.0,6.9,'1111122,1111122,1111122' 
TCOON,ioos:station:TCOON:013:1,2015-04-08T01:12:00Z,27.4847,-97.3181,0.0,5.0,113.0,7.1,'1111122,1111122,1111122' 
TCOON,ioos:station:TCOON:013:1,2015-04-08T02:12:00Z,27.4847,-97.3181,0.0,4.8,119.0,6.0,'1111122,1111122,1111122' 
TCOON,ioos:station:TCOON:013:1,2015-04-08T03:12:00Z,27.4847,-97.3181,0.0,5.8,128.0,7.4,'1111122,1111122,1111122' 
TCOON,ioos:station:TCOON:013:1,2015-04-08T04:12:00Z,27.4847,-97.3181,0.0,6.3,137.0,7.7,'1111122,1111122,1111122' 
TCOON,ioos:station:TCOON:013:1,2015-04-08T05:18:00Z,27.4847,-97.3181,0.0,6.5,151.0,8.2,'1111122,1111122,1111122' 
TCOON,ioos:station:TCOON:013:1,2015-04-08T07:06:00Z,27.4847,-97.3181,0.0,8.0,156.0,10.1,'1111122,1111122,1111122' 
TCOON,ioos:station:TCOON:013:1,2015-04-08T08:18:00Z,27.4847,-97.3181,0.0,7.5,153.0,9.9,'1111122,1111122,1111122' 
TCOON,ioos:station:TCOON:013:1,2015-04-08T09:18:00Z,27.4847,-97.3181,0.0,6.4,158.0,7.5,'1111122,1111122,1111122' 
TCOON,ioos:station:TCOON:013:1,2015-04-08T10:12:00Z,27.4847,-97.3181,0.0,6.9,161.0,8.8,'1111122,1111122,1111122' 
TCOON,ioos:station:TCOON:013:1,2015-04-08T11:18:00Z,27.4847,-97.3181,0.0,7.3,157.0,9.0,'1111122,1111122,1111122' 
TCOON,ioos:station:TCOON:013:1,2015-04-08T12:18:00Z,27.4847,-97.3181,0.0,5.8,143.0,7.3,'1111122,1111122,1111122' 
TCOON,ioos:station:TCOON:013:1,2015-04-08T13:18:00Z,27.4847,-97.3181,0.0,5.7,150.0,7.2,'1111122,1111122,1111122' 
TCOON,ioos:station:TCOON:013:1,2015-04-08T14:18:00Z,27.4847,-97.3181,0.0,5.6,151.0,7.0,'1111122,1111122,1111122' 
TCOON,ioos:station:TCOON:013:1,2015-04-08T15:18:00Z,27.4847,-97.3181,0.0,8.2,152.0,9.6,'1111122,1111122,1111122' 
TCOON,ioos:station:TCOON:013:1,2015-04-08T16:18:00Z,27.4847,-97.3181,0.0,7.3,153.0,8.6,'1111122,1111122,1111122' 
TCOON,ioos:station:TCOON:013:1,2015-04-08T17:18:00Z,27.4847,-97.3181,0.0,8.4,138.0,9.7,'1111122,1111122,1111122' 
TCOON,ioos:station:TCOON:013:1,2015-04-08T18:12:00Z,27.4847,-97.3181,0.0,9.5,140.0,12.0,'1111122,1111122,1111122' 
TCOON,ioos:station:TCOON:013:1,2015-04-08T19:18:00Z,27.4847,-97.3181,0.0,8.1,143.0,11.0,'1111122,1111122,1111122' 
TCOON,ioos:station:TCOON:013:1,2015-04-08T20:24:00Z,27.4847,-97.3181,0.0,6.8,133.0,8.5,'1111122,1111122,1111122' 
TCOON,ioos:station:TCOON:013:1,2015-04-08T21:12:00Z,27.4847,-97.3181,0.0,6.8,130.0,8.3,'1111122,1111122,1111122' 
TCOON,ioos:station:TCOON:013:1,2015-04-08T22:36:00Z,27.4847,-97.3181,0.0,6.1,119.0,9.1,'1111122,1111122,1111122' 
TCOON,ioos:station:TCOON:013:1,2015-04-08T23:36:00Z,27.4847,-97.3181,0.0,4.9,121.0,6.1,'1111122,1111122,1111122' 
TCOON,ioos:station:TCOON:013:1,2015-04-09T00:18:00Z,27.4847,-97.3181,0.0,4.5,117.0,5.7,'1111122,1111122,1111122' 
TCOON,ioos:station:TCOON:013:1,2015-04-09T01:18:00Z,27.4847,-97.3181,0.0,5.2,120.0,6.3,'1111122,1111122,1111122' 
TCOON,ioos:station:TCOON:013:1,2015-04-09T02:54:00Z,27.4847,-97.3181,0.0,4.9,118.0,6.3,'1111122,1111122,1111122' 
TCOON,ioos:station:TCOON:013:1,2015-04-09T03:24:00Z,27.4847,-97.3181,0.0,5.0,124.0,6.3,'1111122,1111122,1111122' 
TCOON,ioos:station:TCOON:013:1,2015-04-09T04:18:00Z,27.4847,-97.3181,0.0,7.1,125.0,8.3,'1111122,1111122,1111122' 
TCOON,ioos:station:TCOON:013:1,2015-04-09T05:30:00Z,27.4847,-97.3181,0.0,6.0,147.0,7.8,'1111122,1111122,1111122' 
TCOON,ioos:station:TCOON:013:1,2015-04-09T07:06:00Z,27.4847,-97.3181,0.0,8.1,157.0,9.6,'1111122,1111122,1111122' 
TCOON,ioos:station:TCOON:013:1,2015-04-09T08:30:00Z,27.4847,-97.3181,0.0,12.6,147.0,15.8,'1111122,1111122,1111122' 
TCOON,ioos:station:TCOON:013:1,2015-04-09T09:42:00Z,27.4847,-97.3181,0.0,6.6,168.0,9.0,'1111122,1111122,1111122' 
TCOON,ioos:station:TCOON:013:1,2015-04-09T10:24:00Z,27.4847,-97.3181,0.0,9.1,164.0,11.1,'1111122,1111122,1111122' 
TCOON,ioos:station:TCOON:013:1,2015-04-09T11:12:00Z,27.4847,-97.3181,0.0,10.8,164.0,13.0,'1111122,1111122,1111122' 
TCOON,ioos:station:TCOON:013:1,2015-04-09T12:24:00Z,27.4847,-97.3181,0.0,5.3,157.0,7.0,'1111122,1111122,1111122' 
TCOON,ioos:station:TCOON:013:1,2015-04-09T13:24:00Z,27.4847,-97.3181,0.0,6.6,153.0,8.0,'1111122,1111122,1111122' 
TCOON,ioos:station:TCOON:013:1,2015-04-09T14:12:00Z,27.4847,-97.3181,0.0,6.0,137.0,8.1,'1111122,1111122,1111122' 
TCOON,ioos:station:TCOON:013:1,2015-04-09T15:18:00Z,27.4847,-97.3181,0.0,6.8,142.0,9.6,'1111122,1111122,1111122' 
TCOON,ioos:station:TCOON:013:1,2015-04-09T16:18:00Z,27.4847,-97.3181,0.0,7.0,152.0,9.1,'1111122,1111122,1111122' 
TCOON,ioos:station:TCOON:013:1,2015-04-09T17:18:00Z,27.4847,-97.3181,0.0,10.0,154.0,12.6,'1111122,1111122,1111122' 
TCOON,ioos:station:TCOON:013:1,2015-04-09T18:36:00Z,27.4847,-97.3181,0.0,8.7,149.0,10.6,'1111122,1111122,1111122' 
TCOON,ioos:station:TCOON:013:1,2015-04-09T19:36:00Z,27.4847,-97.3181,0.0,9.7,148.0,11.6,'1111122,1111122,1111122' 
TCOON,ioos:station:TCOON:013:1,2015-04-09T20:30:00Z,27.4847,-97.3181,0.0,9.6,139.0,11.9,'1111122,1111122,1111122' 
TCOON,ioos:station:TCOON:013:1,2015-04-09T21:36:00Z,27.4847,-97.3181,0.0,9.4,145.0,12.4,'1111122,1111122,1111122' 
TCOON,ioos:station:TCOON:013:1,2015-04-09T22:24:00Z,27.4847,-97.3181,0.0,8.9,137.0,11.3,'1111122,1111122,1111122' 